Regional Weather Roundup
Issued by NWS

Home | Current Version | Previous Version | Graphics & Text | Print | Product List | Glossary On
Versions: 1 2 3 4 5 6 7 8 9 10 11 12 13 14 15 16 17 18 19 20 21 22 23 24 25 26 27 28 29 30 31 32 33 34 35 36 37 38 39 40 41 42 43 44 45 46 47 48 49 50
000
ASUS43 KFSD 220910
RWRSD

WEATHER ROUNDUP FOR SOUTH DAKOTA
NATIONAL WEATHER SERVICE SIOUX FALLS SD
400 AM CDT TUE APR 22 2014

NOTE: "FAIR" INDICATES FEW OR NO CLOUDS BELOW 12,000 FEET WITH NO
SIGNIFICANT WEATHER AND/OR OBSTRUCTIONS TO VISIBILITY.


SDZ001>005-009-010-012>017-221000-
NORTHWEST AND NORTH CENTRAL SOUTH DAKOTA

CITY           SKY/WX    TMP DP  RH WIND       PRES   REMARKS
BUFFALO          N/A     45  30  55 SE12      29.93F
FAITH            N/A     42  30  62 SE13      30.03F
MOBRIDGE       MOCLDY    37  29  72 SE7       30.07F
$$

SDZ012>016-024>037-041>051-057-063-072>074-221000-
SOUTHWEST AND SOUTH CENTRAL SOUTH DAKOTA

CITY           SKY/WX    TMP DP  RH WIND       PRES   REMARKS
RAPID CTY ARPT CLEAR     39  27  62 SE7       30.02F
PIERRE         PTCLDY    39  30  70 E5        30.09F
CUSTER         PTCLDY    34  24  67 CALM      30.05F
ELLSWORTH AFB  PTCLDY    47  28  47 S12       30.01F
PHILIP         CLEAR     45  29  53 E8        30.05F
PINE RIDGE     CLEAR     53  24  32 S22G37    30.01F
SPEARFISH      FAIR      57  28  33 SW12      29.96F
WINNER         FAIR      46  30  53 S9        30.11F
$$

SDZ004>011-016>023-039-040-221000-
NORTHEAST SOUTH DAKOTA

CITY           SKY/WX    TMP DP  RH WIND       PRES   REMARKS
ABERDEEN       CLEAR     28  25  88 CALM      30.14S
WATERTOWN      CLEAR     32  28  85 CALM      30.14R
SISSETON         N/A     32  29  88 W6        30.13S WCI  26
$$

SDZ017-020-022-023-036>040-048>070-221000-
SOUTHEAST SOUTH DAKOTA

CITY           SKY/WX    TMP DP  RH WIND       PRES   REMARKS
SIOUX FALLS    CLEAR     33  29  85 CALM      30.14F
HURON          CLEAR     39  30  70 S6        30.14S
CHAMBERLAIN      N/A     41  32  70 SE8       30.12F
MITCHELL       CLEAR     42  31  64 S5        30.15F
YANKTON        CLEAR     37  28  70 CALM      30.17S
$$

ABBREVIATIONS USED IN REMARKS
   TC - TEMPERATURE IN CELSIUS
  WCI - WIND CHILL INDEX
   HX - HEAT INDEX
  VSB - VISIBILITY




USA.gov is the U.S. government's official web portal to all federal, state and local government web resources and services.